Tracking 19246 objects as of 20-Aug-2018
HD Live streaming from Space Station
objects crossing your sky now

FENGYUN 1C DEB

Track FENGYUN 1C DEB now!
10-day predictions


NORAD ID: 30209
Int'l Code: 1999-025VS
Perigee: 841.3 km
Apogee: 899.4 km
Inclination: 98.9 °
Period: 102.2 minutes
Semi major axis: 7241 km
RCS: 0.053 m2 (small)
Launch date: May 10, 1999
Source: People's Republic of China (PRC)
Launch site: Taiyaun Space Center, China (TSC)

Note: This is SATELLITE DEBRIS
aabbcc
Your satellite tracking list
Your tracking list is empty




NASA's NSSDC Master Catalog

Two Line Element Set (TLE):
1 30209U 99025VS  18232.37325247  .00000082  00000-0  72349-4 0  9997
2 30209  98.8572 265.1742 0040088 242.0807 246.1978 14.08884498595689
Source of the keplerian elements: AFSPC